TimeAEST,TemperatureF,Dew PointF,Humidity,Sea Level PressureIn,VisibilityMPH,Wind Direction,Wind SpeedMPH,Gust SpeedMPH,PrecipitationIn,Events,Conditions,WindDirDegrees,DateUTC
12:00 AM,77,67,64,29.94,,SSW,5.8,,,,,200,2012-11-05 14:00:00
12:00 AM,77.0,68.0,74,29.92,6.2,SSW,5.8,-,N/A,,Partly Cloudy,200,2012-11-05 14:00:00
12:30 AM,77.0,68.0,74,29.92,6.2,South,5.8,-,N/A,,Mostly Cloudy,180,2012-11-05 14:30:00
12:56 AM,73.4,69.8,88,29.92,3.7,South,12.7,-,N/A,Rain,Light Rain Showers,180,2012-11-05 14:56:00
1:00 AM,73,69,84,29.93,,South,11.5,,,,,190,2012-11-05 15:00:00
1:00 AM,73.4,69.8,88,29.92,5.0,South,11.5,-,N/A,Rain,Light Rain Showers,190,2012-11-05 15:00:00
1:30 AM,73.4,69.8,88,29.92,3.7,South,8.1,-,N/A,Rain,Light Rain Showers,170,2012-11-05 15:30:00
2:00 AM,71.6,69.8,94,29.89,2.5,South,10.4,-,N/A,Rain,Light Rain Showers,180,2012-11-05 16:00:00
2:12 AM,73.4,69.8,88,29.89,5.0,SSE,12.7,-,N/A,Rain,Light Rain Showers,160,2012-11-05 16:12:00
2:30 AM,73.4,69.8,88,29.89,6.2,South,9.2,-,N/A,,Mostly Cloudy,170,2012-11-05 16:30:00
3:00 AM,74,71,87,29.90,,SSE,6.9,,,,Overcast,150,2012-11-05 17:00:00
3:00 AM,73.4,71.6,94,29.89,6.2,SSE,6.9,-,N/A,,Mostly Cloudy,150,2012-11-05 17:00:00
3:30 AM,73.4,69.8,88,29.89,6.2,SE,6.9,-,N/A,,Mostly Cloudy,140,2012-11-05 17:30:00
4:00 AM,75,70,79,29.92,,SSE,6.9,,,,,150,2012-11-05 18:00:00
4:00 AM,75.2,69.8,83,29.92,6.2,SSE,6.9,-,N/A,,Mostly Cloudy,150,2012-11-05 18:00:00
4:30 AM,75.2,69.8,83,29.92,6.2,South,4.6,-,N/A,,Scattered Clouds,170,2012-11-05 18:30:00
5:00 AM,75.2,71.6,89,29.92,6.2,ESE,5.8,-,N/A,,Mostly Cloudy,120,2012-11-05 19:00:00
5:30 AM,73.4,71.6,94,29.95,6.2,SSE,5.8,-,N/A,Rain,Light Rain Showers,150,2012-11-05 19:30:00
6:00 AM,74,70,84,29.96,16,South,5.8,,,Rain,Light Rain Showers,170,2012-11-05 20:00:00
6:00 AM,75.2,69.8,83,29.95,6.2,South,5.8,-,N/A,,Mostly Cloudy,170,2012-11-05 20:00:00
6:30 AM,75.2,69.8,83,29.95,6.2,South,10.4,-,N/A,,Mostly Cloudy,180,2012-11-05 20:30:00
7:00 AM,75,70,79,29.99,,South,10.4,,,,,170,2012-11-05 21:00:00
7:00 AM,75.2,69.8,83,29.98,6.2,South,10.4,-,N/A,,Mostly Cloudy,170,2012-11-05 21:00:00
7:30 AM,75.2,69.8,83,29.98,6.2,South,10.4,-,N/A,,Mostly Cloudy,190,2012-11-05 21:30:00
8:00 AM,77.0,68.0,74,29.98,6.2,South,9.2,-,N/A,,Mostly Cloudy,180,2012-11-05 22:00:00
8:30 AM,77.0,69.8,78,29.98,6.2,SSE,11.5,-,N/A,Rain,Light Rain Showers,150,2012-11-05 22:30:00
9:00 AM,80,69,60,29.99,16,SSE,11.5,,,Rain,Light Rain Showers,150,2012-11-05 23:00:00
9:00 AM,80.6,68.0,65,29.98,6.2,SSE,11.5,-,N/A,,Scattered Clouds,150,2012-11-05 23:00:00
10:00 AM,81,67,53,29.98,,ESE,15.0,,,,,120,2012-11-06 00:00:00
10:00 AM,80.6,66.2,61,29.98,6.2,ESE,15.0,-,N/A,,Partly Cloudy,120,2012-11-06 00:00:00
10:30 AM,84.2,64.4,51,29.95,6.2,SE,19.6,-,N/A,,Partly Cloudy,130,2012-11-06 00:30:00
11:00 AM,86.0,64.4,48,29.95,6.2,ESE,17.3,-,N/A,,Partly Cloudy,120,2012-11-06 01:00:00
11:30 AM,86.0,66.2,51,29.95,6.2,ESE,17.3,-,N/A,,Partly Cloudy,120,2012-11-06 01:30:00
12:00 PM,86,64,38,29.94,19,SE,17.3,,,,Partly Cloudy,130,2012-11-06 02:00:00
12:00 PM,86.0,64.4,48,29.92,6.2,SE,17.3,-,N/A,,Partly Cloudy,130,2012-11-06 02:00:00
12:30 PM,86.0,64.4,48,29.92,6.2,SE,18.4,-,N/A,,Partly Cloudy,130,2012-11-06 02:30:00
1:00 PM,86,63,37,29.91,,SE,19.6,,,,,130,2012-11-06 03:00:00
1:00 PM,86.0,62.6,45,29.89,6.2,SE,19.6,-,N/A,,Partly Cloudy,130,2012-11-06 03:00:00
1:30 PM,87.8,66.2,49,29.89,6.2,ESE,19.6,-,N/A,,Partly Cloudy,120,2012-11-06 03:30:00
2:00 PM,86.0,64.4,48,29.86,6.2,SE,18.4,-,N/A,,Partly Cloudy,130,2012-11-06 04:00:00
2:30 PM,86.0,62.6,45,29.86,6.2,ESE,18.4,-,N/A,,Partly Cloudy,120,2012-11-06 04:30:00
3:00 PM,85,64,40,29.87,19,ESE,17.3,,,,Partly Cloudy,120,2012-11-06 05:00:00
3:00 PM,86.0,64.4,48,29.86,6.2,ESE,17.3,-,N/A,,Partly Cloudy,120,2012-11-06 05:00:00
3:30 PM,84.2,62.6,48,29.86,6.2,ESE,18.4,-,N/A,,Partly Cloudy,110,2012-11-06 05:30:00
4:00 PM,84,61,36,29.87,,ESE,18.4,,,,,120,2012-11-06 06:00:00
4:00 PM,84.2,60.8,45,29.86,6.2,ESE,18.4,-,N/A,,Partly Cloudy,120,2012-11-06 06:00:00
4:30 PM,82.4,64.4,54,29.86,6.2,ESE,17.3,-,N/A,,Partly Cloudy,110,2012-11-06 06:30:00
5:00 PM,80.6,62.6,54,29.86,6.2,SE,18.4,-,N/A,,Partly Cloudy,130,2012-11-06 07:00:00
5:30 PM,80.6,64.4,58,29.89,6.2,ESE,16.1,-,N/A,,Partly Cloudy,120,2012-11-06 07:30:00
6:00 PM,79,65,52,29.89,,SSE,15.0,,,,,150,2012-11-06 08:00:00
6:00 PM,78.8,64.4,61,29.89,6.2,SSE,15.0,-,N/A,,Partly Cloudy,150,2012-11-06 08:00:00
6:30 PM,77.0,66.2,69,29.89,6.2,SE,13.8,-,N/A,,Partly Cloudy,140,2012-11-06 08:30:00
7:00 PM,77,66,61,29.91,,SSE,11.5,,,,,150,2012-11-06 09:00:00
7:00 PM,77.0,66.2,69,29.89,6.2,SSE,11.5,-,N/A,,Partly Cloudy,150,2012-11-06 09:00:00
7:30 PM,77.0,66.2,69,29.92,6.2,SE,10.4,-,N/A,,Partly Cloudy,140,2012-11-06 09:30:00
8:00 PM,75.2,66.2,73,29.92,6.2,South,5.8,-,N/A,,Partly Cloudy,170,2012-11-06 10:00:00
8:30 PM,75.2,66.2,73,29.92,6.2,South,5.8,-,N/A,,Partly Cloudy,170,2012-11-06 10:30:00
9:00 PM,76,66,64,29.93,,South,6.9,,,,,180,2012-11-06 11:00:00
9:00 PM,75.2,66.2,73,29.92,6.2,South,6.9,-,N/A,,Scattered Clouds,180,2012-11-06 11:00:00
9:30 PM,75.2,66.2,73,29.92,6.2,South,8.1,-,N/A,,Scattered Clouds,190,2012-11-06 11:30:00
10:00 PM,76,66,65,29.95,,South,8.1,,,,,180,2012-11-06 12:00:00
10:00 PM,75.2,66.2,73,29.95,6.2,South,8.1,-,N/A,,Scattered Clouds,180,2012-11-06 12:00:00
10:30 PM,75.2,68.0,78,29.95,6.2,South,6.9,-,N/A,,Scattered Clouds,170,2012-11-06 12:30:00
11:00 PM,73.4,66.2,78,29.92,6.2,SSE,6.9,-,N/A,,Partly Cloudy,150,2012-11-06 13:00:00
11:30 PM,75.2,66.2,73,29.92,6.2,SSE,8.1,-,N/A,,Scattered Clouds,160,2012-11-06 13:30:00